Oxford, CT

12:39 AM EDT on May 27, 2018 (GMT -0400)
Waterbury-Oxford

Weather History for KOXC - March, 2013

Change the Weather History Date:

Monday, March 4, 2013

  Actual Average Record
Temperature  
Mean Temperature 30 °F -  
Max Temperature 37 °F 38 °F 55 °F (2008)
Min Temperature 24 °F 23 °F 1 °F (2003)
Degree Days  
Heating Degree Days 34    
Moisture  
Dew Point 16 °F    
Average Humidity 59    
Maximum Humidity 64    
Minimum Humidity 48    
Precipitation  
Precipitation 0.00 in - - ()
Sea Level Pressure  
Sea Level Pressure 29.74 in    
Wind  
Wind Speed 11 mph (NW)    
Max Wind Speed 20 mph    
Max Gust Speed 31 mph    
Visibility 10 miles    
Events      
Averages and records for this station are not official NWS values.
T = Trace of Precipitation, MM = Missing Value Source: NWS Daily Summary

Daily Weather History Graph

Daily Weather History Graph

Search for Another Location

Airport or City:

Astronomy

Mar. 04, 2013 Rise Set
Actual Time 6:22 AM EST 5:46 PM EST
Civil Twilight 5:54 AM EST 6:14 PM EST
Nautical Twilight 5:22 AM EST 6:46 PM EST
Astronomical Twilight 4:50 AM EST 7:18 PM EST
Moon 12:31 AM EST (3/4) 10:23 AM EST (3/4)
Length of Visible Light 12h 20m
Length of Day
11h 24m
Waning Gibbous, 52% of the Moon is Illuminated
Mar 4
Waning Gibbous
Mar 4
Last Quarter
Mar 11
New
Mar 19
First Quarter
Mar 27
Full

Hourly Weather History & Observations

Time (EST) Temp. Windchill Dew Point Humidity Pressure Visibility Wind Dir Wind Speed Gust Speed Precip Events Conditions
12:35 AM 26.6 °F 15.7 °F 14.0 °F 59% 29.69 in 10.0 mi NW 12.7 mph 20.7 mph N/A   Overcast
12:55 AM 26.6 °F 17.5 °F 14.0 °F 59% 29.70 in 10.0 mi WNW 9.2 mph 20.7 mph N/A   Overcast
1:15 AM 26.6 °F 18.2 °F 14.0 °F 59% 29.70 in 10.0 mi NW 8.1 mph - N/A   Overcast
1:35 AM 26.6 °F 15.2 °F 14.0 °F 59% 29.70 in 10.0 mi NNW 13.8 mph 17.3 mph N/A   Overcast
1:55 AM 26.6 °F 17.5 °F 14.0 °F 59% 29.69 in 10.0 mi NW 9.2 mph - N/A   Overcast
2:15 AM 26.6 °F 18.2 °F 14.0 °F 59% 29.69 in 10.0 mi NNW 8.1 mph - N/A   Overcast
2:35 AM 26.6 °F 19.1 °F 14.0 °F 59% 29.69 in 10.0 mi NW 6.9 mph - N/A   Overcast
3:15 AM 24.8 °F 16.9 °F 14.0 °F 64% 29.70 in 10.0 mi NW 6.9 mph - N/A   Overcast
3:55 AM 26.6 °F 18.2 °F 14.0 °F 59% 29.70 in 10.0 mi NW 8.1 mph - N/A   Overcast
4:15 AM 26.6 °F 19.1 °F 14.0 °F 59% 29.70 in 10.0 mi NW 6.9 mph 16.1 mph N/A   Overcast
4:35 AM 26.6 °F 17.5 °F 14.0 °F 59% 29.70 in 10.0 mi NW 9.2 mph - N/A   Overcast
4:55 AM 26.6 °F 19.1 °F 14.0 °F 59% 29.71 in 10.0 mi NW 6.9 mph - N/A   Overcast
5:15 AM 26.6 °F 17.5 °F 15.8 °F 64% 29.71 in 10.0 mi NW 9.2 mph - N/A   Overcast
5:45 AM 24.8 °F 16.9 °F 14.0 °F 64% 29.71 in 10.0 mi NNW 6.9 mph 18.4 mph N/A   Clear
6:45 AM 26.6 °F 17.5 °F 15.8 °F 64% 29.72 in 10.0 mi NNW 9.2 mph 20.7 mph N/A   Mostly Cloudy
7:45 AM 26.6 °F 18.2 °F 15.8 °F 64% 29.73 in 10.0 mi NW 8.1 mph 19.6 mph N/A   Mostly Cloudy
8:05 AM 26.6 °F 18.2 °F 15.8 °F 64% 29.73 in 10.0 mi NW 8.1 mph 19.6 mph N/A   Scattered Clouds
8:45 AM 28.4 °F 20.4 °F 17.6 °F 64% 29.74 in 10.0 mi NW 8.1 mph 19.6 mph N/A   Mostly Cloudy
9:45 AM 30.2 °F 24.3 °F 17.6 °F 60% 29.73 in 10.0 mi WNW 5.8 mph 17.3 mph N/A   Mostly Cloudy
10:45 AM 33.8 °F 25.3 °F 19.4 °F 56% 29.73 in 10.0 mi NNW 11.5 mph 23.0 mph N/A   Mostly Cloudy
11:45 AM 35.6 °F 26.2 °F 19.4 °F 52% 29.72 in 10.0 mi WNW 15.0 mph 26.5 mph N/A   Mostly Cloudy
12:45 PM 35.6 °F 26.6 °F 19.4 °F 52% 29.71 in 10.0 mi NNW 13.8 mph 23.0 mph N/A   Scattered Clouds
1:45 PM 37.4 °F 31.4 °F 19.4 °F 48% 29.69 in 10.0 mi NNW 8.1 mph 20.7 mph N/A   Mostly Cloudy
2:45 PM 37.4 °F 29.8 °F 19.4 °F 48% 29.70 in 10.0 mi NW 11.5 mph 21.9 mph N/A   Mostly Cloudy
3:45 PM 35.6 °F 25.2 °F 19.4 °F 52% 29.70 in 10.0 mi North 18.4 mph 24.2 mph N/A   Mostly Cloudy
4:45 PM 33.8 °F 23.5 °F 17.6 °F 52% 29.72 in 10.0 mi WNW 16.1 mph 25.3 mph N/A   Mostly Cloudy
5:45 PM 32.0 °F 22.1 °F 17.6 °F 55% 29.74 in 10.0 mi NNW 13.8 mph 31.1 mph N/A   Partly Cloudy
6:45 PM 30.2 °F 20.8 °F 15.8 °F 55% 29.77 in 10.0 mi NNW 11.5 mph 18.4 mph N/A   Scattered Clouds
7:45 PM 30.2 °F 19.8 °F 15.8 °F 55% 29.78 in 10.0 mi NNW 13.8 mph 27.6 mph N/A   Partly Cloudy
8:55 PM 30.2 °F 18.9 °F 15.8 °F 55% 29.80 in 10.0 mi NNW 16.1 mph 28.8 mph N/A   Overcast
9:35 PM 28.4 °F 16.6 °F 17.6 °F 64% 29.80 in 10.0 mi NNW 16.1 mph 31.1 mph N/A   Mostly Cloudy
9:55 PM 28.4 °F 17.0 °F 17.6 °F 64% 29.81 in 10.0 mi NW 15.0 mph 26.5 mph N/A   Mostly Cloudy
10:15 PM 28.4 °F 17.5 °F 17.6 °F 64% 29.81 in 10.0 mi NNW 13.8 mph 28.8 mph N/A   Mostly Cloudy
10:35 PM 28.4 °F 15.4 °F 17.6 °F 64% 29.82 in 10.0 mi NNW 19.6 mph 27.6 mph N/A   Overcast
11:15 PM 28.4 °F 18.0 °F 17.6 °F 64% 29.83 in 10.0 mi NW 12.7 mph 20.7 mph N/A   Overcast
11:35 PM 28.4 °F 17.0 °F 17.6 °F 64% 29.83 in 10.0 mi NNW 15.0 mph 26.5 mph N/A   Overcast
11:55 PM 28.4 °F 18.0 °F 17.6 °F 64% 29.83 in 10.0 mi NNW 12.7 mph 18.4 mph N/A   Overcast